When you browse on this site, cookies collect data to enhance your experience and personalize the content and advertising you see.
Visit our Privacy Policy to learn more. By continuing to use the site, you agree to this use of cookies and data.
  • In Netherlands
  • List of Countries
  • For 7 days
  • Water Temperature
  • Satellite Maps
  • Weather Map
  • Weather Widgets
  • user-avatar
    Login

    Hourly Weather Barneveld

    Today, 21 February, Thursday

    Time Temperature Precipitation Wind Pressure Humidity
    00:00 +5°C° 0 mm 3 mps 767 mmHg 87%
    01:00 +5°C° 0 mm 3 mps 767 mmHg 88%
    02:00 +4°C° 0 mm 3 mps 767 mmHg 90%
    03:00 +4°C° 0 mm 3 mps 767 mmHg 92%
    04:00 +4°C° 0 mm 3 mps 767 mmHg 92%
    05:00 +4°C° 0 mm 3 mps 767 mmHg 93%
    06:00 +4°C° 0 mm 3 mps 767 mmHg 93%
    07:00 +5°C° 0 mm 4 mps 767 mmHg 89%
    08:00 +6°C° 0 mm 4 mps 767 mmHg 85%
    09:00 +7°C° 0 mm 5 mps 767 mmHg 81%
    10:00 +7°C° 0 mm 4 mps 767 mmHg 81%
    11:00 +8°C° 0 mm 4 mps 768 mmHg 81%
    12:00 +8°C° 0 mm 4 mps 768 mmHg 80%
    13:00 +8°C° 0.1 mm 4 mps 768 mmHg 82%
    14:00 +8°C° 0.1 mm 4 mps 768 mmHg 84%
    15:00 +8°C° 0.1 mm 4 mps 768 mmHg 85%
    16:00 +8°C° 0 mm 4 mps 768 mmHg 88%
    17:00 +9°C° 0 mm 3 mps 769 mmHg 90%
    18:00 +9°C° 0 mm 3 mps 769 mmHg 93%
    19:00 +9°C° 0 mm 3 mps 770 mmHg 94%
    20:00 +9°C° 0 mm 3 mps 770 mmHg 94%
    21:00 +9°C° 0 mm 3 mps 771 mmHg 95%
    22:00 +9°C° 0 mm 2 mps 771 mmHg 95%
    23:00 +9°C° 0 mm 2 mps 772 mmHg 96%

    Tomorrow, 22 February, Friday

    Time Temperature Precipitation Wind Pressure Humidity
    00:00 +9°C° 0 mm 2 mps 772 mmHg 96%
    01:00 +8°C° 0 mm 2 mps 772 mmHg 96%
    02:00 +9°C° 0 mm 1 mps 772 mmHg 97%
    03:00 +9°C° 0 mm 1 mps 773 mmHg 97%
    04:00 +9°C° 0 mm 1 mps 773 mmHg 97%
    05:00 +9°C° 0 mm 1 mps 773 mmHg 97%
    06:00 +9°C° 0 mm 1 mps 774 mmHg 97%
    07:00 +9°C° 0 mm 1 mps 774 mmHg 95%
    08:00 +10°C° 0 mm 1 mps 775 mmHg 92%
    09:00 +9°C° 0 mm 2 mps 775 mmHg 90%
    10:00 +9°C° 0 mm 2 mps 775 mmHg 87%
    11:00 +10°C° 0 mm 2 mps 776 mmHg 83%
    12:00 +10°C° 0 mm 2 mps 776 mmHg 80%
    13:00 +12°C° 0 mm 2 mps 776 mmHg 78%
    14:00 +12°C° 0 mm 2 mps 776 mmHg 75%
    15:00 +12°C° 0 mm 2 mps 776 mmHg 73%
    16:00 +10°C° 0 mm 2 mps 776 mmHg 78%
    17:00 +9°C° 0 mm 2 mps 776 mmHg 83%
    18:00 +8°C° 0 mm 2 mps 777 mmHg 87%
    19:00 +7°C° 0 mm 2 mps 777 mmHg 89%
    20:00 +7°C° 0 mm 2 mps 777 mmHg 90%
    21:00 +7°C° 0 mm 3 mps 777 mmHg 91%
    22:00 +5°C° 0 mm 3 mps 777 mmHg 91%
    23:00 +5°C° 0 mm 3 mps 777 mmHg 91%

    Day after tomorrow, 23 February, Saturday

    Time Temperature Precipitation Wind Pressure Humidity
    00:00 +4°C° 0 mm 3 mps 777 mmHg 91%
    01:00 +4°C° 0 mm 3 mps 777 mmHg 92%
    02:00 +4°C° 0 mm 3 mps 777 mmHg 92%
    03:00 +4°C° 0 mm 3 mps 777 mmHg 93%
    04:00 +4°C° 0 mm 2 mps 777 mmHg 92%
    05:00 +4°C° 0 mm 2 mps 777 mmHg 90%
    06:00 +3°C° 0 mm 2 mps 777 mmHg 89%
    07:00 +4°C° 0 mm 2 mps 777 mmHg 82%
    08:00 +4°C° 0 mm 3 mps 777 mmHg 74%
    09:00 +5°C° 0 mm 3 mps 777 mmHg 67%
    10:00 +8°C° 0 mm 3 mps 777 mmHg 60%
    11:00 +9°C° 0 mm 3 mps 777 mmHg 54%
    12:00 +10°C° 0 mm 4 mps 777 mmHg 48%
    13:00 +11°C° 0 mm 4 mps 776 mmHg 46%
    14:00 +11°C° 0 mm 3 mps 776 mmHg 44%
    15:00 +11°C° 0 mm 3 mps 776 mmHg 42%
    16:00 +10°C° 0 mm 3 mps 776 mmHg 46%
    17:00 +8°C° 0 mm 3 mps 776 mmHg 51%
    18:00 +7°C° 0 mm 2 mps 776 mmHg 55%
    19:00 +7°C° 0 mm 2 mps 776 mmHg 55%
    20:00 +6°C° 0 mm 2 mps 776 mmHg 56%
    21:00 +5°C° 0 mm 3 mps 776 mmHg 56%
    22:00 +4°C° 0 mm 3 mps 776 mmHg 54%
    23:00 +4°C° 0 mm 3 mps 776 mmHg 53%

    24 February, Sunday

    Time Temperature Precipitation Wind Pressure Humidity
    00:00 +4°C° 0 mm 3 mps 776 mmHg 51%
    01:00 +3°C° 0 mm 3 mps 776 mmHg 50%
    02:00 +4°C° 0 mm 2 mps 776 mmHg 48%
    03:00 +3°C° 0 mm 2 mps 776 mmHg 46%
    04:00 +3°C° 0 mm 2 mps 776 mmHg 46%
    05:00 +3°C° 0 mm 2 mps 776 mmHg 46%
    06:00 +2°C° 0 mm 3 mps 776 mmHg 45%
    07:00 +3°C° 0 mm 3 mps 776 mmHg 43%
    08:00 +4°C° 0 mm 3 mps 776 mmHg 42%
    09:00 +5°C° 0 mm 3 mps 777 mmHg 40%
    10:00 +8°C° 0 mm 3 mps 777 mmHg 38%
    11:00 +9°C° 0 mm 3 mps 777 mmHg 37%
    12:00 +11°C° 0 mm 3 mps 777 mmHg 36%
    13:00 +11°C° 0 mm 3 mps 776 mmHg 36%
    14:00 +12°C° 0 mm 3 mps 776 mmHg 36%
    15:00 +12°C° 0 mm 3 mps 776 mmHg 37%
    16:00 +12°C° 0 mm 2 mps 776 mmHg 40%
    17:00 +9°C° 0 mm 2 mps 776 mmHg 43%
    18:00 +7°C° 0 mm 2 mps 776 mmHg 47%
    19:00 +7°C° 0 mm 2 mps 776 mmHg 46%
    20:00 +7°C° 0 mm 2 mps 777 mmHg 46%
    21:00 +6°C° 0 mm 2 mps 777 mmHg 46%
    22:00 +6°C° 0 mm 2 mps 777 mmHg 48%
    23:00 +5°C° 0 mm 2 mps 777 mmHg 49%

    25 February, Monday

    Time Temperature Precipitation Wind Pressure Humidity
    00:00 +5°C° 0 mm 2 mps 777 mmHg 51%
    01:00 +6°C° 0 mm 1 mps 777 mmHg 52%
    02:00 +5°C° 0 mm 1 mps 777 mmHg 53%
    03:00 +5°C° 0 mm 1 mps 777 mmHg 55%
    04:00 +5°C° 0 mm 1 mps 777 mmHg 56%
    05:00 +5°C° 0 mm 1 mps 777 mmHg 58%
    06:00 +5°C° 0 mm 1 mps 777 mmHg 59%
    07:00 +6°C° 0 mm 1 mps 777 mmHg 57%
    08:00 +7°C° 0 mm 1 mps 777 mmHg 55%
    09:00 +8°C° 0 mm 1 mps 778 mmHg 52%
    10:00 +10°C° 0 mm 1 mps 777 mmHg 49%
    11:00 +12°C° 0 mm 1 mps 777 mmHg 45%
    12:00 +13°C° 0 mm 1 mps 777 mmHg 41%
    13:00 +14°C° 0 mm 1 mps 777 mmHg 41%
    14:00 +13°C° 0 mm 0 mps 776 mmHg 41%
    15:00 +14°C° 0 mm 0 mps 776 mmHg 41%
    16:00 +12°C° 0 mm 0 mps 776 mmHg 47%
    17:00 +11°C° 0 mm 1 mps 776 mmHg 52%
    18:00 +10°C° 0 mm 1 mps 776 mmHg 57%
    19:00 +9°C° 0 mm 1 mps 776 mmHg 59%
    20:00 +9°C° 0 mm 1 mps 777 mmHg 61%
    21:00 +8°C° 0 mm 1 mps 777 mmHg 63%
    22:00 +8°C° 0 mm 1 mps 776 mmHg 63%
    23:00 +8°C° 0 mm 1 mps 776 mmHg 64%

    26 February, Tuesday

    Time Temperature Precipitation Wind Pressure Humidity
    00:00 +6°C° 0 mm 0 mps 776 mmHg 64%
    01:00 +6°C° 0 mm 0 mps 776 mmHg 65%
    02:00 +6°C° 0 mm 0 mps 776 mmHg 65%
    03:00 +6°C° 0 mm 0 mps 775 mmHg 66%
    04:00 +6°C° 0 mm 0 mps 775 mmHg 66%
    05:00 +5°C° 0 mm 0 mps 775 mmHg 67%
    06:00 +5°C° 0 mm 0 mps 775 mmHg 68%
    07:00 +7°C° 0 mm 0 mps 775 mmHg 65%
    08:00 +8°C° 0 mm 0 mps 775 mmHg 62%
    09:00 +10°C° 0 mm 0 mps 775 mmHg 59%
    10:00 +11°C° 0 mm 0 mps 775 mmHg 55%
    11:00 +13°C° 0 mm 0 mps 775 mmHg 51%
    12:00 +14°C° 0 mm 0 mps 775 mmHg 47%
    13:00 +14°C° 0 mm 0 mps 774 mmHg 47%
    14:00 +15°C° 0 mm 0 mps 774 mmHg 46%
    15:00 +16°C° 0 mm 1 mps 774 mmHg 46%
    16:00 +14°C° 0 mm 1 mps 774 mmHg 51%
    17:00 +12°C° 0 mm 1 mps 773 mmHg 56%
    18:00 +11°C° 0 mm 1 mps 773 mmHg 61%
    19:00 +10°C° 0 mm 1 mps 773 mmHg 62%
    20:00 +10°C° 0 mm 1 mps 773 mmHg 63%
    21:00 +9°C° 0 mm 1 mps 773 mmHg 64%
    22:00 +9°C° 0 mm 1 mps 773 mmHg 64%
    23:00 +9°C° 0 mm 1 mps 773 mmHg 65%
    Show more